Time,TemperatureF,DewpointF,PressureIn,WindDirection,WindDirectionDegrees,WindSpeedMPH,WindSpeedGustMPH,Humidity,HourlyPrecipIn,Conditions,Clouds,dailyrainin,SoftwareType,DateUTC
2013-12-09 00:00:00,21.7,3.6,29.91,North,0,0.0,0.0,45,0.00,OVC,,0.00,WeatherDisplay:10.37,2013-12-09 06:00:00,
2013-12-09 00:05:00,21.6,3.5,29.91,North,0,0.0,0.0,45,0.00,OVC,,0.00,WeatherDisplay:10.37,2013-12-09 06:05:00,
2013-12-09 00:10:00,21.7,3.6,29.91,North,0,0.0,0.0,45,0.00,OVC,,0.00,WeatherDisplay:10.37,2013-12-09 06:10:00,
2013-12-09 00:15:00,21.7,3.6,29.91,North,0,0.0,0.0,45,0.00,OVC,,0.00,WeatherDisplay:10.37,2013-12-09 06:15:00,
2013-12-09 00:20:00,21.7,3.6,29.91,North,0,0.0,0.0,45,0.00,OVC,,0.00,WeatherDisplay:10.37,2013-12-09 06:20:00,
2013-12-09 00:25:00,21.6,3.5,29.91,North,0,0.0,0.0,45,0.00,OVC,,0.00,WeatherDisplay:10.37,2013-12-09 06:25:00,
2013-12-09 00:30:00,21.6,3.5,29.91,North,0,0.0,0.0,45,0.00,OVC,,0.00,WeatherDisplay:10.37,2013-12-09 06:30:00,
2013-12-09 00:35:00,21.6,3.5,29.91,North,0,0.0,0.0,45,0.00,OVC,,0.00,WeatherDisplay:10.37,2013-12-09 06:35:00,
2013-12-09 00:40:00,21.4,3.3,29.91,North,0,0.0,0.0,45,0.00,OVC,,0.00,WeatherDisplay:10.37,2013-12-09 06:40:00,
2013-12-09 00:45:00,21.4,3.3,29.91,North,0,0.0,0.0,45,0.00,OVC,,0.00,WeatherDisplay:10.37,2013-12-09 06:45:00,
2013-12-09 00:50:00,21.2,3.6,29.91,North,0,0.0,0.0,46,0.00,OVC,,0.00,WeatherDisplay:10.37,2013-12-09 06:50:00,
2013-12-09 00:55:00,21.2,3.1,29.91,North,0,0.0,0.0,45,0.00,OVC,,0.00,WeatherDisplay:10.37,2013-12-09 06:55:00,
2013-12-09 01:00:00,21.2,3.1,29.91,North,0,0.0,0.0,45,0.00,OVC,,0.00,WeatherDisplay:10.37,2013-12-09 07:00:00,
2013-12-09 01:05:00,21.0,3.0,29.91,North,0,0.0,0.0,45,0.00,-SN,OVC,0.00,WeatherDisplay:10.37,2013-12-09 07:05:00,
2013-12-09 01:10:00,20.8,2.8,29.91,North,0,0.0,0.0,45,0.00,-SN,OVC,0.00,WeatherDisplay:10.37,2013-12-09 07:10:00,
2013-12-09 01:15:00,20.8,2.8,29.91,North,0,0.0,0.0,45,0.00,-SN,OVC,0.00,WeatherDisplay:10.37,2013-12-09 07:15:00,
2013-12-09 01:20:00,20.7,2.6,29.91,North,0,0.0,0.0,45,0.00,-SN,OVC,0.00,WeatherDisplay:10.37,2013-12-09 07:20:00,
2013-12-09 01:25:00,20.5,2.0,29.91,North,0,0.0,0.0,44,0.00,-SN,OVC,0.00,WeatherDisplay:10.37,2013-12-09 07:25:00,
2013-12-09 01:30:00,20.5,2.0,29.91,North,0,0.0,0.0,44,0.00,-SN,OVC,0.00,WeatherDisplay:10.37,2013-12-09 07:30:00,
2013-12-09 01:35:00,20.3,1.8,29.91,North,0,0.0,0.0,44,0.00,-SN,OVC,0.00,WeatherDisplay:10.37,2013-12-09 07:35:00,
2013-12-09 01:40:00,20.3,1.8,29.91,North,0,0.0,0.0,44,0.00,-SN,OVC,0.00,WeatherDisplay:10.37,2013-12-09 07:40:00,
2013-12-09 01:45:00,20.3,1.8,29.91,North,0,0.0,0.0,44,0.00,-SN,OVC,0.00,WeatherDisplay:10.37,2013-12-09 07:45:00,
2013-12-09 01:50:00,20.1,1.7,29.91,North,0,0.0,0.0,44,0.00,-SN,OVC,0.00,WeatherDisplay:10.37,2013-12-09 07:50:00,
2013-12-09 01:55:00,20.1,1.7,29.91,North,0,0.0,0.0,44,0.00,-SN,OVC,0.00,WeatherDisplay:10.37,2013-12-09 07:55:00,
2013-12-09 02:00:00,19.9,1.5,29.91,North,0,0.0,0.0,44,0.00,-SN,OVC,0.00,WeatherDisplay:10.37,2013-12-09 08:00:00,
2013-12-09 02:05:00,19.8,0.8,29.91,North,0,0.0,0.0,43,0.00,-SN,OVC,0.00,WeatherDisplay:10.37,2013-12-09 08:05:00,
2013-12-09 02:10:00,19.6,0.7,29.91,North,0,0.0,0.0,43,0.00,-SN,OVC,0.00,WeatherDisplay:10.37,2013-12-09 08:10:00,
2013-12-09 02:15:00,19.4,1.0,29.94,North,0,0.0,0.0,44,0.00,-SN,OVC,0.00,WeatherDisplay:10.37,2013-12-09 08:15:00,
2013-12-09 02:20:00,19.4,0.5,29.94,North,0,0.0,0.0,43,0.00,-SN,OVC,0.00,WeatherDisplay:10.37,2013-12-09 08:20:00,
2013-12-09 02:25:00,19.2,0.3,29.94,North,0,0.0,0.0,43,0.00,-SN,OVC,0.00,WeatherDisplay:10.37,2013-12-09 08:25:00,
2013-12-09 02:30:00,19.0,0.2,29.94,North,0,0.0,0.0,43,0.00,-SN,OVC,0.00,WeatherDisplay:10.37,2013-12-09 08:30:00,
2013-12-09 02:35:00,19.0,0.2,29.94,North,0,0.0,0.0,43,0.00,-SN,OVC,0.00,WeatherDisplay:10.37,2013-12-09 08:35:00,
2013-12-09 02:40:00,18.7,-0.1,29.94,North,0,0.0,0.0,43,0.00,-SN,OVC,0.00,WeatherDisplay:10.37,2013-12-09 08:40:00,
2013-12-09 02:45:00,18.7,-0.1,29.94,North,0,0.0,0.0,43,0.00,-SN,OVC,0.00,WeatherDisplay:10.37,2013-12-09 08:45:00,
2013-12-09 02:50:00,18.7,-0.1,29.94,North,0,0.0,0.0,43,0.00,OVC,,0.00,WeatherDisplay:10.37,2013-12-09 08:50:00,
2013-12-09 02:55:00,18.5,-0.3,29.94,North,0,0.0,0.0,43,0.00,OVC,,0.00,WeatherDisplay:10.37,2013-12-09 08:55:00,
2013-12-09 02:58:00,18.3,-0.5,29.94,North,0,0.0,0.0,43,0.00,OVC,,0.00,WeatherDisplay:10.37,2013-12-09 08:58:00,
2013-12-09 03:03:00,18.3,-0.5,29.94,North,0,0.0,0.0,43,0.00,OVC,,0.00,WeatherDisplay:10.37,2013-12-09 09:03:00,
2013-12-09 03:08:00,18.1,-1.1,29.94,North,0,0.0,0.0,42,0.00,OVC,,0.00,WeatherDisplay:10.37,2013-12-09 09:08:00,
2013-12-09 03:13:00,18.1,-1.1,29.94,North,0,0.0,0.0,42,0.00,OVC,,0.00,WeatherDisplay:10.37,2013-12-09 09:13:00,
2013-12-09 03:18:00,18.0,-1.3,29.94,North,0,0.0,0.0,42,0.00,OVC,,0.00,WeatherDisplay:10.37,2013-12-09 09:18:00,
2013-12-09 03:23:00,17.8,-1.5,29.94,North,0,0.0,0.0,42,0.00,OVC,,0.00,WeatherDisplay:10.37,2013-12-09 09:23:00,
2013-12-09 03:28:00,17.8,-1.5,29.94,North,0,0.0,0.0,42,0.00,OVC,,0.00,WeatherDisplay:10.37,2013-12-09 09:28:00,
2013-12-09 03:33:00,17.6,-1.6,29.94,North,0,0.0,0.0,42,0.00,OVC,,0.00,WeatherDisplay:10.37,2013-12-09 09:33:00,
2013-12-09 03:38:00,17.4,-2.3,29.94,North,0,0.0,0.0,41,0.00,OVC,,0.00,WeatherDisplay:10.37,2013-12-09 09:38:00,
2013-12-09 03:43:00,17.2,-2.5,29.94,North,0,0.0,0.0,41,0.00,OVC,,0.00,WeatherDisplay:10.37,2013-12-09 09:43:00,
2013-12-09 03:48:00,17.1,-2.6,29.97,North,0,0.0,0.0,41,0.00,OVC,,0.00,WeatherDisplay:10.37,2013-12-09 09:48:00,
2013-12-09 03:53:00,17.1,-2.6,29.97,North,0,0.0,0.0,41,0.00,OVC,,0.00,WeatherDisplay:10.37,2013-12-09 09:53:00,
2013-12-09 03:58:00,16.9,-2.8,29.97,North,0,0.0,0.0,41,0.00,OVC,,0.00,WeatherDisplay:10.37,2013-12-09 09:58:00,
2013-12-09 04:03:00,16.9,-2.8,29.97,North,0,0.0,0.0,41,0.00,BKN,OVC,0.00,WeatherDisplay:10.37,2013-12-09 10:03:00,
2013-12-09 04:08:00,16.7,-3.0,29.97,North,0,0.0,0.0,41,0.00,BKN,OVC,0.00,WeatherDisplay:10.37,2013-12-09 10:08:00,
2013-12-09 04:13:00,16.7,-3.0,29.97,North,0,0.0,0.0,41,0.00,BKN,OVC,0.00,WeatherDisplay:10.37,2013-12-09 10:13:00,
2013-12-09 04:18:00,16.7,-3.0,29.97,North,0,0.0,0.0,41,0.00,BKN,OVC,0.00,WeatherDisplay:10.37,2013-12-09 10:18:00,
2013-12-09 04:23:00,16.9,-2.8,29.97,North,0,0.0,0.0,41,0.00,BKN,OVC,0.00,WeatherDisplay:10.37,2013-12-09 10:23:00,
2013-12-09 04:28:00,16.7,-3.0,29.97,North,0,0.0,0.0,41,0.00,BKN,OVC,0.00,WeatherDisplay:10.37,2013-12-09 10:28:00,
2013-12-09 04:33:00,16.7,-3.0,29.97,North,0,0.0,0.0,41,0.00,BKN,OVC,0.00,WeatherDisplay:10.37,2013-12-09 10:33:00,
2013-12-09 04:38:00,16.7,-3.0,29.97,North,0,0.0,0.0,41,0.00,BKN,OVC,0.00,WeatherDisplay:10.37,2013-12-09 10:38:00,
2013-12-09 04:43:00,16.7,-3.0,29.97,North,0,0.0,0.0,41,0.00,BKN,OVC,0.00,WeatherDisplay:10.37,2013-12-09 10:43:00,
2013-12-09 04:48:00,16.7,-3.0,29.97,North,0,0.0,0.0,41,0.00,OVC,,0.00,WeatherDisplay:10.37,2013-12-09 10:48:00,
2013-12-09 04:53:00,16.5,-3.1,29.97,North,0,0.0,0.0,41,0.00,OVC,,0.00,WeatherDisplay:10.37,2013-12-09 10:53:00,
2013-12-09 04:58:00,16.5,-3.1,29.97,North,0,0.0,0.0,41,0.00,OVC,,0.00,WeatherDisplay:10.37,2013-12-09 10:58:00,
2013-12-09 05:00:00,16.3,-3.3,29.97,North,0,0.0,0.0,41,0.00,OVC,,0.00,WeatherDisplay:10.37,2013-12-09 11:00:00,
2013-12-09 05:05:00,16.2,-3.5,30.00,North,0,0.0,0.0,41,0.00,OVC,,0.00,WeatherDisplay:10.37,2013-12-09 11:05:00,
2013-12-09 05:10:00,16.0,-3.6,30.00,North,0,0.0,0.0,41,0.00,OVC,,0.00,WeatherDisplay:10.37,2013-12-09 11:10:00,
2013-12-09 05:15:00,15.8,-4.3,30.00,North,0,0.0,0.0,40,0.00,OVC,,0.00,WeatherDisplay:10.37,2013-12-09 11:15:00,
2013-12-09 05:20:00,15.4,-4.6,30.00,North,0,0.0,0.0,40,0.00,OVC,,0.00,WeatherDisplay:10.37,2013-12-09 11:20:00,
2013-12-09 05:25:00,15.3,-4.8,30.00,North,0,0.0,0.0,40,0.00,OVC,,0.00,WeatherDisplay:10.37,2013-12-09 11:25:00,
2013-12-09 05:30:00,14.9,-5.1,30.00,North,0,0.0,0.0,40,0.00,OVC,,0.00,WeatherDisplay:10.37,2013-12-09 11:30:00,
2013-12-09 05:35:00,14.7,-5.8,30.00,North,0,0.0,0.0,39,0.00,OVC,,0.00,WeatherDisplay:10.37,2013-12-09 11:35:00,
2013-12-09 05:40:00,14.4,-6.1,30.00,North,0,0.0,0.0,39,0.00,OVC,,0.00,WeatherDisplay:10.37,2013-12-09 11:40:00,
2013-12-09 05:45:00,14.2,-6.3,30.00,North,0,0.0,0.0,39,0.00,OVC,,0.00,WeatherDisplay:10.37,2013-12-09 11:45:00,
2013-12-09 05:50:00,14.0,-5.9,30.00,North,0,0.0,0.0,40,0.00,OVC,,0.00,WeatherDisplay:10.37,2013-12-09 11:50:00,
2013-12-09 05:55:00,13.8,-6.1,30.00,North,0,0.0,0.0,40,0.00,OVC,,0.00,WeatherDisplay:10.37,2013-12-09 11:55:00,
2013-12-09 06:00:00,13.6,-6.3,30.00,North,0,0.0,0.0,40,0.00,OVC,,0.00,WeatherDisplay:10.37,2013-12-09 12:00:00,
2013-12-09 06:05:00,13.6,-6.3,30.00,North,0,0.0,0.0,40,0.00,CLR,OVC,0.00,WeatherDisplay:10.37,2013-12-09 12:05:00,
2013-12-09 06:10:00,13.5,-6.4,30.00,North,0,0.0,0.0,40,0.00,CLR,OVC,0.00,WeatherDisplay:10.37,2013-12-09 12:10:00,
2013-12-09 06:15:00,13.5,-6.4,30.00,North,0,0.0,0.0,40,0.00,CLR,OVC,0.00,WeatherDisplay:10.37,2013-12-09 12:15:00,
2013-12-09 06:20:00,13.3,-6.6,30.03,North,0,0.0,0.0,40,0.00,CLR,OVC,0.00,WeatherDisplay:10.37,2013-12-09 12:20:00,
2013-12-09 06:25:00,13.1,-6.7,30.03,North,0,0.0,0.0,40,0.00,CLR,OVC,0.00,WeatherDisplay:10.37,2013-12-09 12:25:00,
2013-12-09 06:30:00,12.9,-6.9,30.03,North,0,0.0,0.0,40,0.00,CLR,OVC,0.00,WeatherDisplay:10.37,2013-12-09 12:30:00,
2013-12-09 06:35:00,12.7,-7.1,30.03,North,0,0.0,0.0,40,0.00,CLR,OVC,0.00,WeatherDisplay:10.37,2013-12-09 12:35:00,
2013-12-09 06:40:00,12.7,-7.1,30.03,North,0,0.0,0.0,40,0.00,CLR,OVC,0.00,WeatherDisplay:10.37,2013-12-09 12:40:00,
2013-12-09 06:45:00,12.6,-7.2,30.03,North,0,0.0,0.0,40,0.00,CLR,OVC,0.00,WeatherDisplay:10.37,2013-12-09 12:45:00,
2013-12-09 06:50:00,12.6,-7.2,30.06,North,0,0.0,0.0,40,0.00,CLR,OVC,0.00,WeatherDisplay:10.37,2013-12-09 12:50:00,
2013-12-09 06:55:00,12.4,-7.4,30.06,North,0,0.0,0.0,40,0.00,CLR,OVC,0.00,WeatherDisplay:10.37,2013-12-09 12:55:00,
2013-12-09 07:00:00,12.2,-7.6,30.06,North,0,0.0,0.0,40,0.00,CLR,OVC,0.00,WeatherDisplay:10.37,2013-12-09 13:00:00,
2013-12-09 07:05:00,12.2,-7.6,30.06,North,0,0.0,0.0,40,0.00,CLR,OVC,0.00,WeatherDisplay:10.37,2013-12-09 13:05:00,
2013-12-09 07:10:00,12.0,-7.7,30.06,North,0,0.0,0.0,40,0.00,CLR,OVC,0.00,WeatherDisplay:10.37,2013-12-09 13:10:00,
2013-12-09 07:15:00,12.0,-7.7,30.06,North,0,0.0,0.0,40,0.00,CLR,OVC,0.00,WeatherDisplay:10.37,2013-12-09 13:15:00,
2013-12-09 07:20:00,12.0,-7.7,30.06,North,0,0.0,0.0,40,0.00,CLR,OVC,0.00,WeatherDisplay:10.37,2013-12-09 13:20:00,
2013-12-09 07:25:00,11.8,-7.9,30.06,North,0,0.0,0.0,40,0.00,CLR,OVC,0.00,WeatherDisplay:10.37,2013-12-09 13:25:00,
2013-12-09 07:30:00,11.7,-8.1,30.06,North,0,0.0,0.0,40,0.00,CLR,OVC,0.00,WeatherDisplay:10.37,2013-12-09 13:30:00,
2013-12-09 07:35:00,11.7,-8.1,30.06,North,0,0.0,0.0,40,0.00,CLR,OVC,0.00,WeatherDisplay:10.37,2013-12-09 13:35:00,
2013-12-09 07:40:00,11.5,-8.2,30.06,North,0,0.0,0.0,40,0.00,CLR,OVC,0.00,WeatherDisplay:10.37,2013-12-09 13:40:00,
2013-12-09 07:45:00,11.3,-8.4,30.06,North,0,0.0,0.0,40,0.00,CLR,OVC,0.00,WeatherDisplay:10.37,2013-12-09 13:45:00,
2013-12-09 07:50:00,11.3,-8.4,30.06,North,0,0.0,0.0,40,0.00,CLR,OVC,0.00,WeatherDisplay:10.37,2013-12-09 13:50:00,
2013-12-09 07:55:00,11.3,-8.4,30.06,North,0,0.0,0.0,40,0.00,CLR,OVC,0.00,WeatherDisplay:10.37,2013-12-09 13:55:00,
2013-12-09 08:00:00,11.3,-8.4,30.06,North,0,0.0,0.0,40,0.00,CLR,OVC,0.00,WeatherDisplay:10.37,2013-12-09 14:00:00,
2013-12-09 08:05:00,11.3,-8.4,30.09,North,0,0.0,0.0,40,0.00,CLR,OVC,0.00,WeatherDisplay:10.37,2013-12-09 14:05:00,
2013-12-09 08:10:00,11.5,-8.2,30.09,North,0,0.0,0.0,40,0.00,CLR,OVC,0.00,WeatherDisplay:10.37,2013-12-09 14:10:00,
2013-12-09 08:15:00,11.7,-8.1,30.09,North,0,0.0,0.0,40,0.00,CLR,OVC,0.00,WeatherDisplay:10.37,2013-12-09 14:15:00,
2013-12-09 08:20:00,11.8,-7.9,30.09,North,0,0.0,0.0,40,0.00,CLR,OVC,0.00,WeatherDisplay:10.37,2013-12-09 14:20:00,
2013-12-09 08:25:00,11.8,-7.9,30.09,North,0,0.0,0.0,40,0.00,CLR,OVC,0.00,WeatherDisplay:10.37,2013-12-09 14:25:00,
2013-12-09 08:30:00,11.8,-7.9,30.09,North,0,0.0,0.0,40,0.00,CLR,OVC,0.00,WeatherDisplay:10.37,2013-12-09 14:30:00,
2013-12-09 08:35:00,12.0,-7.7,30.09,North,0,0.0,0.0,40,0.00,CLR,OVC,0.00,WeatherDisplay:10.37,2013-12-09 14:35:00,
2013-12-09 08:40:00,12.0,-7.7,30.09,North,0,0.0,0.0,40,0.00,CLR,OVC,0.00,WeatherDisplay:10.37,2013-12-09 14:40:00,
2013-12-09 08:45:00,12.0,-7.7,30.09,North,0,0.0,0.0,40,0.00,CLR,OVC,0.00,WeatherDisplay:10.37,2013-12-09 14:45:00,
2013-12-09 08:50:00,12.0,-7.7,30.09,North,0,0.0,0.0,40,0.00,CLR,OVC,0.00,WeatherDisplay:10.37,2013-12-09 14:50:00,
2013-12-09 08:55:00,11.8,-7.9,30.09,North,0,0.0,0.0,40,0.00,CLR,OVC,0.00,WeatherDisplay:10.37,2013-12-09 14:55:00,
2013-12-09 09:00:00,11.8,-7.9,30.09,North,0,0.0,0.0,40,0.00,CLR,OVC,0.00,WeatherDisplay:10.37,2013-12-09 15:00:00,
2013-12-09 09:06:00,11.8,-7.9,30.09,North,0,0.0,0.0,40,0.00,CLR,OVC,0.00,WeatherDisplay:10.37,2013-12-09 15:06:00,
2013-12-09 09:11:00,11.8,-7.9,30.09,North,0,0.0,0.0,40,0.00,CLR,OVC,0.00,WeatherDisplay:10.37,2013-12-09 15:11:00,
2013-12-09 09:16:00,11.8,-7.9,30.09,North,0,0.0,0.0,40,0.00,CLR,OVC,0.00,WeatherDisplay:10.37,2013-12-09 15:16:00,
2013-12-09 09:21:00,11.8,-7.9,30.09,North,0,0.0,0.0,40,0.00,CLR,OVC,0.00,WeatherDisplay:10.37,2013-12-09 15:21:00,
2013-12-09 09:26:00,12.0,-7.7,30.09,North,0,0.0,0.0,40,0.00,CLR,OVC,0.00,WeatherDisplay:10.37,2013-12-09 15:26:00,
2013-12-09 09:31:00,12.0,-7.7,30.12,North,0,0.0,0.0,40,0.00,CLR,OVC,0.00,WeatherDisplay:10.37,2013-12-09 15:31:00,
2013-12-09 09:36:00,12.0,-7.7,30.12,North,0,0.0,0.0,40,0.00,CLR,OVC,0.00,WeatherDisplay:10.37,2013-12-09 15:36:00,
2013-12-09 09:41:00,12.0,-7.7,30.12,North,0,0.0,0.0,40,0.00,CLR,OVC,0.00,WeatherDisplay:10.37,2013-12-09 15:41:00,
2013-12-09 09:46:00,12.0,-7.7,30.12,North,0,0.0,0.0,40,0.00,CLR,OVC,0.00,WeatherDisplay:10.37,2013-12-09 15:46:00,
2013-12-09 09:51:00,11.8,-7.9,30.12,North,0,0.0,0.0,40,0.00,CLR,OVC,0.00,WeatherDisplay:10.37,2013-12-09 15:51:00,
2013-12-09 09:56:00,12.0,-7.7,30.12,North,0,0.0,0.0,40,0.00,CLR,OVC,0.00,WeatherDisplay:10.37,2013-12-09 15:56:00,
2013-12-09 10:01:00,12.0,-7.7,30.12,North,0,0.0,0.0,40,0.00,CLR,OVC,0.00,WeatherDisplay:10.37,2013-12-09 16:01:00,
2013-12-09 10:06:00,12.2,-7.6,30.12,North,0,0.0,0.0,40,0.00,CLR,OVC,0.00,WeatherDisplay:10.37,2013-12-09 16:06:00,
2013-12-09 10:11:00,12.6,-7.2,30.12,North,0,0.0,0.0,40,0.00,CLR,OVC,0.00,WeatherDisplay:10.37,2013-12-09 16:11:00,
2013-12-09 10:16:00,12.6,-7.2,30.12,North,0,0.0,0.0,40,0.00,CLR,OVC,0.00,WeatherDisplay:10.37,2013-12-09 16:16:00,
2013-12-09 10:21:00,12.7,-7.1,30.12,North,0,0.0,0.0,40,0.00,CLR,OVC,0.00,WeatherDisplay:10.37,2013-12-09 16:21:00,
2013-12-09 10:26:00,12.7,-7.1,30.12,North,0,0.0,0.0,40,0.00,CLR,OVC,0.00,WeatherDisplay:10.37,2013-12-09 16:26:00,
2013-12-09 10:31:00,12.7,-7.1,30.12,North,0,0.0,0.0,40,0.00,CLR,OVC,0.00,WeatherDisplay:10.37,2013-12-09 16:31:00,
2013-12-09 10:36:00,12.6,-7.2,30.12,North,0,0.0,0.0,40,0.00,CLR,OVC,0.00,WeatherDisplay:10.37,2013-12-09 16:36:00,
2013-12-09 10:41:00,12.7,-7.1,30.12,North,0,0.0,0.0,40,0.00,CLR,OVC,0.00,WeatherDisplay:10.37,2013-12-09 16:41:00,
2013-12-09 10:46:00,13.3,-6.6,30.12,North,0,0.0,0.0,40,0.00,CLR,OVC,0.00,WeatherDisplay:10.37,2013-12-09 16:46:00,
2013-12-09 10:51:00,13.5,-6.4,30.12,North,0,0.0,0.0,40,0.00,CLR,OVC,0.00,WeatherDisplay:10.37,2013-12-09 16:51:00,
2013-12-09 10:56:00,13.6,-6.3,30.12,North,0,0.0,0.0,40,0.00,CLR,OVC,0.00,WeatherDisplay:10.37,2013-12-09 16:56:00,
2013-12-09 11:01:00,13.6,-6.3,30.15,North,0,0.0,0.0,40,0.00,CLR,OVC,0.00,WeatherDisplay:10.37,2013-12-09 17:01:00,
2013-12-09 11:06:00,13.6,-6.3,30.15,North,0,0.0,0.0,40,0.00,CLR,OVC,0.00,WeatherDisplay:10.37,2013-12-09 17:06:00,
2013-12-09 11:11:00,13.5,-6.4,30.15,North,0,0.0,0.0,40,0.00,CLR,OVC,0.00,WeatherDisplay:10.37,2013-12-09 17:11:00,
2013-12-09 11:16:00,13.5,-6.4,30.12,North,0,0.0,0.0,40,0.00,CLR,OVC,0.00,WeatherDisplay:10.37,2013-12-09 17:16:00,
2013-12-09 11:21:00,13.6,-6.3,30.12,North,0,0.0,0.0,40,0.00,CLR,OVC,0.00,WeatherDisplay:10.37,2013-12-09 17:21:00,
2013-12-09 11:26:00,14.0,-20.8,30.12,North,0,0.0,0.0,19,0.00,CLR,OVC,0.00,WeatherDisplay:10.37,2013-12-09 17:26:00,
2013-12-09 11:31:00,14.2,-20.6,30.12,North,0,0.0,0.0,19,0.00,CLR,OVC,0.00,WeatherDisplay:10.37,2013-12-09 17:31:00,
2013-12-09 11:36:00,14.2,-20.6,30.12,North,0,0.0,0.0,19,0.00,CLR,OVC,0.00,WeatherDisplay:10.37,2013-12-09 17:36:00,
2013-12-09 11:41:00,14.5,-20.3,30.12,North,0,0.0,0.0,19,0.00,CLR,OVC,0.00,WeatherDisplay:10.37,2013-12-09 17:41:00,
2013-12-09 11:46:00,14.9,-20.0,30.15,North,0,0.0,0.0,19,0.00,CLR,OVC,0.00,WeatherDisplay:10.37,2013-12-09 17:46:00,
2013-12-09 11:51:00,15.1,-19.9,30.15,North,0,0.0,0.0,19,0.00,CLR,OVC,0.00,WeatherDisplay:10.37,2013-12-09 17:51:00,
2013-12-09 11:56:00,15.1,-19.9,30.15,North,0,0.0,0.0,19,0.00,CLR,OVC,0.00,WeatherDisplay:10.37,2013-12-09 17:56:00,
2013-12-09 12:01:00,15.1,-19.9,30.15,North,0,0.0,0.0,19,0.00,CLR,OVC,0.00,WeatherDisplay:10.37,2013-12-09 18:01:00,
2013-12-09 12:06:00,15.1,-19.9,30.15,North,0,0.0,0.0,19,0.00,CLR,OVC,0.00,WeatherDisplay:10.37,2013-12-09 18:06:00,
2013-12-09 12:11:00,15.1,-19.9,30.15,North,0,0.0,0.0,19,0.00,CLR,OVC,0.00,WeatherDisplay:10.37,2013-12-09 18:11:00,
2013-12-09 12:16:00,14.9,-20.0,30.15,North,0,0.0,0.0,19,0.00,CLR,OVC,0.00,WeatherDisplay:10.37,2013-12-09 18:16:00,
2013-12-09 12:21:00,14.9,-20.0,30.15,North,0,0.0,0.0,19,0.00,CLR,OVC,0.00,WeatherDisplay:10.37,2013-12-09 18:21:00,
2013-12-09 12:26:00,14.9,-20.0,30.15,North,0,0.0,0.0,19,0.00,CLR,OVC,0.00,WeatherDisplay:10.37,2013-12-09 18:26:00,
2013-12-09 12:31:00,14.4,-20.5,30.15,North,0,0.0,0.0,19,0.00,CLR,OVC,0.00,WeatherDisplay:10.37,2013-12-09 18:31:00,
2013-12-09 12:36:00,13.8,-20.9,30.15,North,0,0.0,0.0,19,0.00,CLR,OVC,0.00,WeatherDisplay:10.37,2013-12-09 18:36:00,
2013-12-09 12:41:00,13.5,-21.2,30.15,North,0,0.0,0.0,19,0.00,CLR,OVC,0.00,WeatherDisplay:10.37,2013-12-09 18:41:00,
2013-12-09 12:46:00,13.3,-21.4,30.15,North,0,0.0,0.0,19,0.00,CLR,OVC,0.00,WeatherDisplay:10.37,2013-12-09 18:46:00,
2013-12-09 12:51:00,12.9,-21.7,30.15,North,0,0.0,0.0,19,0.00,CLR,OVC,0.00,WeatherDisplay:10.37,2013-12-09 18:51:00,
2013-12-09 12:56:00,12.6,-22.0,30.15,North,0,0.0,0.0,19,0.00,CLR,OVC,0.00,WeatherDisplay:10.37,2013-12-09 18:56:00,
2013-12-09 13:01:00,12.6,-22.0,30.15,North,0,0.0,0.0,19,0.00,CLR,OVC,0.00,WeatherDisplay:10.37,2013-12-09 19:01:00,
2013-12-09 13:06:00,12.9,-21.7,30.15,North,0,0.0,0.0,19,0.00,CLR,OVC,0.00,WeatherDisplay:10.37,2013-12-09 19:06:00,
2013-12-09 13:11:00,12.9,-21.7,30.15,North,0,0.0,0.0,19,0.00,CLR,OVC,0.00,WeatherDisplay:10.37,2013-12-09 19:11:00,
2013-12-09 13:16:00,13.1,-21.5,30.15,North,0,0.0,0.0,19,0.00,CLR,OVC,0.00,WeatherDisplay:10.37,2013-12-09 19:16:00,
2013-12-09 13:21:00,12.9,-21.7,30.15,North,0,0.0,0.0,19,0.00,CLR,OVC,0.00,WeatherDisplay:10.37,2013-12-09 19:21:00,
2013-12-09 13:26:00,12.7,-21.8,30.15,North,0,0.0,0.0,19,0.00,CLR,OVC,0.00,WeatherDisplay:10.37,2013-12-09 19:26:00,
2013-12-09 13:31:00,12.6,-22.0,30.15,North,0,0.0,0.0,19,0.00,CLR,OVC,0.00,WeatherDisplay:10.37,2013-12-09 19:31:00,
2013-12-09 13:36:00,12.2,-22.3,30.15,North,0,0.0,0.0,19,0.00,CLR,OVC,0.00,WeatherDisplay:10.37,2013-12-09 19:36:00,
2013-12-09 13:41:00,12.0,-22.4,30.15,North,0,0.0,0.0,19,0.00,CLR,OVC,0.00,WeatherDisplay:10.37,2013-12-09 19:41:00,
2013-12-09 13:46:00,11.8,-22.6,30.15,North,0,0.0,0.0,19,0.00,CLR,OVC,0.00,WeatherDisplay:10.37,2013-12-09 19:46:00,
2013-12-09 13:51:00,11.7,-22.7,30.15,North,0,0.0,0.0,19,0.00,CLR,OVC,0.00,WeatherDisplay:10.37,2013-12-09 19:51:00,
2013-12-09 13:56:00,11.3,-23.1,30.15,North,0,0.0,0.0,19,0.00,CLR,OVC,0.00,WeatherDisplay:10.37,2013-12-09 19:56:00,
2013-12-09 14:01:00,10.9,-23.4,30.15,North,0,0.0,0.0,19,0.00,CLR,OVC,0.00,WeatherDisplay:10.37,2013-12-09 20:01:00,
2013-12-09 14:06:00,10.9,-23.4,30.15,North,0,0.0,0.0,19,0.00,CLR,OVC,0.00,WeatherDisplay:10.37,2013-12-09 20:06:00,
2013-12-09 14:11:00,10.9,-23.4,30.15,North,0,0.0,0.0,19,0.00,CLR,OVC,0.00,WeatherDisplay:10.37,2013-12-09 20:11:00,
2013-12-09 14:16:00,10.8,-23.5,30.18,North,0,0.0,0.0,19,0.00,CLR,OVC,0.00,WeatherDisplay:10.37,2013-12-09 20:16:00,
2013-12-09 14:21:00,10.8,-23.5,30.18,North,0,0.0,0.0,19,0.00,CLR,OVC,0.00,WeatherDisplay:10.37,2013-12-09 20:21:00,
2013-12-09 14:26:00,10.8,-23.5,30.18,North,0,0.0,0.0,19,0.00,CLR,OVC,0.00,WeatherDisplay:10.37,2013-12-09 20:26:00,
2013-12-09 14:31:00,10.4,-23.8,30.18,North,0,0.0,0.0,19,0.00,CLR,OVC,0.00,WeatherDisplay:10.37,2013-12-09 20:31:00,
2013-12-09 14:36:00,10.4,-23.8,30.18,North,0,0.0,0.0,19,0.00,CLR,OVC,0.00,WeatherDisplay:10.37,2013-12-09 20:36:00,
2013-12-09 14:41:00,10.0,-24.1,30.18,North,0,0.0,0.0,19,0.00,CLR,OVC,0.00,WeatherDisplay:10.37,2013-12-09 20:41:00,
2013-12-09 14:46:00,9.7,-24.4,30.18,North,0,0.0,0.0,19,0.00,CLR,OVC,0.00,WeatherDisplay:10.37,2013-12-09 20:46:00,
2013-12-09 14:51:00,9.7,-24.4,30.18,North,0,0.0,0.0,19,0.00,CLR,OVC,0.00,WeatherDisplay:10.37,2013-12-09 20:51:00,
2013-12-09 14:56:00,9.7,-24.4,30.18,North,0,0.0,0.0,19,0.00,CLR,OVC,0.00,WeatherDisplay:10.37,2013-12-09 20:56:00,
2013-12-09 15:01:00,9.7,-24.4,30.18,North,0,0.0,0.0,19,0.00,CLR,OVC,0.00,WeatherDisplay:10.37,2013-12-09 21:01:00,
2013-12-09 15:06:00,9.7,-24.4,30.18,North,0,0.0,0.0,19,0.00,CLR,OVC,0.00,WeatherDisplay:10.37,2013-12-09 21:06:00,
2013-12-09 15:11:00,9.7,-24.4,30.18,North,0,0.0,0.0,19,0.00,CLR,OVC,0.00,WeatherDisplay:10.37,2013-12-09 21:11:00,
2013-12-09 15:16:00,9.5,-24.6,30.18,North,0,0.0,0.0,19,0.00,CLR,OVC,0.00,WeatherDisplay:10.37,2013-12-09 21:16:00,
2013-12-09 15:21:00,9.0,-25.0,30.18,North,0,0.0,0.0,19,0.00,CLR,OVC,0.00,WeatherDisplay:10.37,2013-12-09 21:21:00,
2013-12-09 15:26:00,8.6,-25.3,30.18,North,0,0.0,0.0,19,0.00,CLR,OVC,0.00,WeatherDisplay:10.37,2013-12-09 21:26:00,
2013-12-09 15:31:00,8.2,-25.6,30.18,North,0,0.0,0.0,19,0.00,CLR,OVC,0.00,WeatherDisplay:10.37,2013-12-09 21:31:00,
2013-12-09 15:36:00,8.1,-25.8,30.18,North,0,0.0,0.0,19,0.00,CLR,OVC,0.00,WeatherDisplay:10.37,2013-12-09 21:36:00,
2013-12-09 15:41:00,7.9,-25.9,30.18,North,0,0.0,0.0,19,0.00,CLR,OVC,0.00,WeatherDisplay:10.37,2013-12-09 21:41:00,
2013-12-09 15:46:00,7.7,-26.1,30.18,North,0,0.0,0.0,19,0.00,CLR,OVC,0.00,WeatherDisplay:10.37,2013-12-09 21:46:00,
2013-12-09 15:51:00,7.5,-26.2,30.18,North,0,0.0,0.0,19,0.00,CLR,OVC,0.00,WeatherDisplay:10.37,2013-12-09 21:51:00,
2013-12-09 15:56:00,7.2,-26.5,30.18,North,0,0.0,0.0,19,0.00,CLR,OVC,0.00,WeatherDisplay:10.37,2013-12-09 21:56:00,
2013-12-09 16:01:00,7.0,-26.7,30.18,North,0,0.0,0.0,19,0.00,CLR,OVC,0.00,WeatherDisplay:10.37,2013-12-09 22:01:00,
2013-12-09 16:06:00,7.0,-26.7,30.18,North,0,0.0,0.0,19,0.00,CLR,OVC,0.00,WeatherDisplay:10.37,2013-12-09 22:06:00,
2013-12-09 16:11:00,6.8,-26.8,30.18,North,0,0.0,0.0,19,0.00,CLR,OVC,0.00,WeatherDisplay:10.37,2013-12-09 22:11:00,
2013-12-09 16:16:00,6.4,-27.1,30.18,North,0,0.0,0.0,19,0.00,CLR,OVC,0.00,WeatherDisplay:10.37,2013-12-09 22:16:00,
2013-12-09 16:21:00,6.4,-27.1,30.18,North,0,0.0,0.0,19,0.00,CLR,OVC,0.00,WeatherDisplay:10.37,2013-12-09 22:21:00,
2013-12-09 16:26:00,6.3,-27.3,30.18,North,0,0.0,0.0,19,0.00,CLR,OVC,0.00,WeatherDisplay:10.37,2013-12-09 22:26:00,
2013-12-09 16:31:00,6.1,-27.5,30.18,North,0,0.0,0.0,19,0.00,CLR,OVC,0.00,WeatherDisplay:10.37,2013-12-09 22:31:00,
2013-12-09 16:36:00,6.1,-27.5,30.18,North,0,0.0,0.0,19,0.00,CLR,OVC,0.00,WeatherDisplay:10.37,2013-12-09 22:36:00,
2013-12-09 16:41:00,5.9,-27.6,30.18,North,0,0.0,0.0,19,0.00,CLR,OVC,0.00,WeatherDisplay:10.37,2013-12-09 22:41:00,
2013-12-09 16:46:00,5.9,-27.6,30.18,North,0,0.0,0.0,19,0.00,CLR,OVC,0.00,WeatherDisplay:10.37,2013-12-09 22:46:00,
2013-12-09 16:51:00,5.7,-27.8,30.18,North,0,0.0,0.0,19,0.00,CLR,OVC,0.00,WeatherDisplay:10.37,2013-12-09 22:51:00,
2013-12-09 16:56:00,5.7,-27.8,30.18,North,0,0.0,0.0,19,0.00,CLR,OVC,0.00,WeatherDisplay:10.37,2013-12-09 22:56:00,
2013-12-09 17:01:00,5.7,-27.8,30.18,North,0,0.0,0.0,19,0.00,CLR,OVC,0.00,WeatherDisplay:10.37,2013-12-09 23:01:00,
2013-12-09 17:06:00,5.7,-27.8,30.18,North,0,0.0,0.0,19,0.00,CLR,OVC,0.00,WeatherDisplay:10.37,2013-12-09 23:06:00,
2013-12-09 17:11:00,5.5,-27.9,30.18,North,0,0.0,0.0,19,0.00,CLR,OVC,0.00,WeatherDisplay:10.37,2013-12-09 23:11:00,
2013-12-09 17:16:00,5.5,-27.9,30.18,North,0,0.0,0.0,19,0.00,CLR,OVC,0.00,WeatherDisplay:10.37,2013-12-09 23:16:00,
2013-12-09 17:21:00,5.4,-28.1,30.18,North,0,0.0,0.0,19,0.00,CLR,OVC,0.00,WeatherDisplay:10.37,2013-12-09 23:21:00,
2013-12-09 17:26:00,5.4,-28.1,30.18,North,0,0.0,0.0,19,0.00,CLR,OVC,0.00,WeatherDisplay:10.37,2013-12-09 23:26:00,
2013-12-09 17:31:00,5.2,-28.2,30.18,North,0,0.0,0.0,19,0.00,CLR,OVC,0.00,WeatherDisplay:10.37,2013-12-09 23:31:00,
2013-12-09 17:36:00,5.0,-28.4,30.18,North,0,0.0,0.0,19,0.00,CLR,OVC,0.00,WeatherDisplay:10.37,2013-12-09 23:36:00,
2013-12-09 17:41:00,5.0,-28.4,30.18,North,0,0.0,0.0,19,0.00,CLR,OVC,0.00,WeatherDisplay:10.37,2013-12-09 23:41:00,
2013-12-09 17:46:00,5.0,-28.4,30.18,North,0,0.0,0.0,19,0.00,CLR,OVC,0.00,WeatherDisplay:10.37,2013-12-09 23:46:00,
2013-12-09 17:51:00,4.8,-28.5,30.18,North,0,0.0,0.0,19,0.00,CLR,OVC,0.00,WeatherDisplay:10.37,2013-12-09 23:51:00,
2013-12-09 17:56:00,4.6,-28.7,30.18,North,0,0.0,0.0,19,0.00,CLR,OVC,0.00,WeatherDisplay:10.37,2013-12-09 23:56:00,
2013-12-09 18:01:00,4.5,-28.8,30.18,North,0,0.0,0.0,19,0.00,CLR,OVC,0.00,WeatherDisplay:10.37,2013-12-10 00:01:00,
2013-12-09 18:06:00,4.5,-28.8,30.18,North,0,0.0,0.0,19,0.00,CLR,OVC,0.00,WeatherDisplay:10.37,2013-12-10 00:06:00,
2013-12-09 18:11:00,4.5,-28.8,30.18,North,0,0.0,0.0,19,0.00,CLR,OVC,0.00,WeatherDisplay:10.37,2013-12-10 00:11:00,
2013-12-09 18:16:00,4.5,-28.8,30.18,North,0,0.0,0.0,19,0.00,CLR,OVC,0.00,WeatherDisplay:10.37,2013-12-10 00:16:00,
2013-12-09 18:21:00,4.5,-28.8,30.18,North,0,0.0,0.0,19,0.00,CLR,OVC,0.00,WeatherDisplay:10.37,2013-12-10 00:21:00,
2013-12-09 18:26:00,4.3,-29.0,30.18,North,0,0.0,0.0,19,0.00,CLR,OVC,0.00,WeatherDisplay:10.37,2013-12-10 00:26:00,
2013-12-09 18:31:00,4.1,-29.1,30.18,North,0,0.0,0.0,19,0.00,CLR,OVC,0.00,WeatherDisplay:10.37,2013-12-10 00:31:00,
2013-12-09 18:36:00,4.1,-29.1,30.18,North,0,0.0,0.0,19,0.00,CLR,OVC,0.00,WeatherDisplay:10.37,2013-12-10 00:36:00,
2013-12-09 18:41:00,3.9,-29.3,30.18,North,0,0.0,0.0,19,0.00,CLR,OVC,0.00,WeatherDisplay:10.37,2013-12-10 00:41:00,
2013-12-09 18:46:00,3.7,-29.4,30.18,North,0,0.0,0.0,19,0.00,CLR,OVC,0.00,WeatherDisplay:10.37,2013-12-10 00:46:00,
2013-12-09 18:51:00,3.7,-29.4,30.18,North,0,0.0,0.0,19,0.00,CLR,OVC,0.00,WeatherDisplay:10.37,2013-12-10 00:51:00,
2013-12-09 18:56:00,3.6,-29.6,30.18,North,0,0.0,0.0,19,0.00,CLR,OVC,0.00,WeatherDisplay:10.37,2013-12-10 00:56:00,
2013-12-09 19:01:00,3.4,-29.7,30.15,North,0,0.0,0.0,19,0.00,CLR,OVC,0.00,WeatherDisplay:10.37,2013-12-10 01:01:00,
2013-12-09 19:06:00,3.4,-29.7,30.15,North,0,0.0,0.0,19,0.00,CLR,OVC,0.00,WeatherDisplay:10.37,2013-12-10 01:06:00,
2013-12-09 19:11:00,3.4,-29.7,30.15,North,0,0.0,0.0,19,0.00,CLR,OVC,0.00,WeatherDisplay:10.37,2013-12-10 01:11:00,
2013-12-09 19:16:00,3.2,-29.9,30.15,North,0,0.0,0.0,19,0.00,CLR,OVC,0.00,WeatherDisplay:10.37,2013-12-10 01:16:00,
2013-12-09 19:21:00,3.2,-29.9,30.15,North,0,0.0,0.0,19,0.00,CLR,OVC,0.00,WeatherDisplay:10.37,2013-12-10 01:21:00,
2013-12-09 19:26:00,2.8,-30.2,30.15,North,0,0.0,0.0,19,0.00,CLR,OVC,0.00,WeatherDisplay:10.37,2013-12-10 01:26:00,
2013-12-09 19:31:00,2.7,-30.3,30.18,North,0,0.0,0.0,19,0.00,CLR,OVC,0.00,WeatherDisplay:10.37,2013-12-10 01:31:00,
2013-12-09 19:36:00,2.5,-30.5,30.18,North,0,0.0,0.0,19,0.00,CLR,OVC,0.00,WeatherDisplay:10.37,2013-12-10 01:36:00,
2013-12-09 19:41:00,2.5,-30.5,30.18,North,0,0.0,0.0,19,0.00,CLR,OVC,0.00,WeatherDisplay:10.37,2013-12-10 01:41:00,
2013-12-09 19:46:00,2.3,-30.6,30.18,North,0,0.0,0.0,19,0.00,CLR,OVC,0.00,WeatherDisplay:10.37,2013-12-10 01:46:00,
2013-12-09 19:51:00,2.1,-30.8,30.18,North,0,0.0,0.0,19,0.00,CLR,OVC,0.00,WeatherDisplay:10.37,2013-12-10 01:51:00,
2013-12-09 19:56:00,1.9,-30.9,30.18,North,0,0.0,0.0,19,0.00,CLR,OVC,0.00,WeatherDisplay:10.37,2013-12-10 01:56:00,
2013-12-09 20:01:00,1.8,-31.1,30.15,North,0,0.0,0.0,19,0.00,CLR,OVC,0.00,WeatherDisplay:10.37,2013-12-10 02:01:00,
2013-12-09 20:06:00,1.6,-31.3,30.15,North,0,0.0,0.0,19,0.00,CLR,OVC,0.00,WeatherDisplay:10.37,2013-12-10 02:06:00,
2013-12-09 20:11:00,1.6,-31.3,30.15,North,0,0.0,0.0,19,0.00,CLR,OVC,0.00,WeatherDisplay:10.37,2013-12-10 02:11:00,
2013-12-09 20:16:00,1.4,-31.4,30.15,North,0,0.0,0.0,19,0.00,CLR,OVC,0.00,WeatherDisplay:10.37,2013-12-10 02:16:00,
2013-12-09 20:21:00,1.2,-31.6,30.15,North,0,0.0,0.0,19,0.00,CLR,OVC,0.00,WeatherDisplay:10.37,2013-12-10 02:21:00,
2013-12-09 20:26:00,1.2,-31.6,30.15,North,0,0.0,0.0,19,0.00,CLR,OVC,0.00,WeatherDisplay:10.37,2013-12-10 02:26:00,
2013-12-09 20:31:00,1.0,-31.7,30.15,North,0,0.0,0.0,19,0.00,CLR,OVC,0.00,WeatherDisplay:10.37,2013-12-10 02:31:00,
2013-12-09 20:36:00,0.9,-31.9,30.15,North,0,0.0,0.0,19,0.00,CLR,OVC,0.00,WeatherDisplay:10.37,2013-12-10 02:36:00,
2013-12-09 20:41:00,0.7,-32.0,30.15,North,0,0.0,0.0,19,0.00,CLR,OVC,0.00,WeatherDisplay:10.37,2013-12-10 02:41:00,
2013-12-09 20:46:00,0.7,-32.0,30.15,North,0,0.0,0.0,19,0.00,CLR,OVC,0.00,WeatherDisplay:10.37,2013-12-10 02:46:00,
2013-12-09 20:51:00,0.5,-32.2,30.15,North,0,0.0,0.0,19,0.00,CLR,OVC,0.00,WeatherDisplay:10.37,2013-12-10 02:51:00,
2013-12-09 20:56:00,0.3,-32.3,30.15,North,0,0.0,0.0,19,0.00,CLR,OVC,0.00,WeatherDisplay:10.37,2013-12-10 02:56:00,
2013-12-09 21:01:00,0.1,-32.5,30.15,North,0,0.0,0.0,19,0.00,CLR,OVC,0.00,WeatherDisplay:10.37,2013-12-10 03:01:00,
2013-12-09 21:06:00,0.0,-32.6,30.15,North,0,0.0,0.0,19,0.00,CLR,OVC,0.00,WeatherDisplay:10.37,2013-12-10 03:06:00,
2013-12-09 21:11:00,-0.2,-32.8,30.15,North,0,0.0,0.0,19,0.00,CLR,OVC,0.00,WeatherDisplay:10.37,2013-12-10 03:11:00,
2013-12-09 21:16:00,-0.4,-32.9,30.15,North,0,0.0,0.0,19,0.00,CLR,OVC,0.00,WeatherDisplay:10.37,2013-12-10 03:16:00,
2013-12-09 21:21:00,-0.6,-33.1,30.15,North,0,0.0,0.0,19,0.00,CLR,OVC,0.00,WeatherDisplay:10.37,2013-12-10 03:21:00,
2013-12-09 21:26:00,-0.6,-33.1,30.15,North,0,0.0,0.0,19,0.00,CLR,OVC,0.00,WeatherDisplay:10.37,2013-12-10 03:26:00,
2013-12-09 21:31:00,-0.6,-33.1,30.15,North,0,0.0,0.0,19,0.00,CLR,OVC,0.00,WeatherDisplay:10.37,2013-12-10 03:31:00,
2013-12-09 21:36:00,-0.8,-33.2,30.15,North,0,0.0,0.0,19,0.00,CLR,OVC,0.00,WeatherDisplay:10.37,2013-12-10 03:36:00,
2013-12-09 21:41:00,-0.9,-33.4,30.15,North,0,0.0,0.0,19,0.00,CLR,OVC,0.00,WeatherDisplay:10.37,2013-12-10 03:41:00,
2013-12-09 21:46:00,-0.9,-33.4,30.15,North,0,0.0,0.0,19,0.00,CLR,OVC,0.00,WeatherDisplay:10.37,2013-12-10 03:46:00,
2013-12-09 21:51:00,-0.9,-33.4,30.15,North,0,0.0,0.0,19,0.00,CLR,OVC,0.00,WeatherDisplay:10.37,2013-12-10 03:51:00,
2013-12-09 21:56:00,-0.9,-33.4,30.15,North,0,0.0,0.0,19,0.00,CLR,OVC,0.00,WeatherDisplay:10.37,2013-12-10 03:56:00,
2013-12-09 22:01:00,-0.9,-33.4,30.12,North,0,0.0,0.0,19,0.00,CLR,OVC,0.00,WeatherDisplay:10.37,2013-12-10 04:01:00,
2013-12-09 22:06:00,-0.9,-33.4,30.12,North,0,0.0,0.0,19,0.00,CLR,OVC,0.00,WeatherDisplay:10.37,2013-12-10 04:06:00,
2013-12-09 22:11:00,-1.1,-33.5,30.12,North,0,0.0,0.0,19,0.00,CLR,OVC,0.00,WeatherDisplay:10.37,2013-12-10 04:11:00,
2013-12-09 22:16:00,-1.1,-33.5,30.12,North,0,0.0,0.0,19,0.00,CLR,OVC,0.00,WeatherDisplay:10.37,2013-12-10 04:16:00,
2013-12-09 22:21:00,-1.3,-33.7,30.12,North,0,0.0,0.0,19,0.00,CLR,OVC,0.00,WeatherDisplay:10.37,2013-12-10 04:21:00,
2013-12-09 22:26:00,-1.3,-33.7,30.12,North,0,0.0,0.0,19,0.00,CLR,OVC,0.00,WeatherDisplay:10.37,2013-12-10 04:26:00,
2013-12-09 22:31:00,-1.3,-33.7,30.12,North,0,0.0,0.0,19,0.00,CLR,OVC,0.00,WeatherDisplay:10.37,2013-12-10 04:31:00,
2013-12-09 22:36:00,-1.3,-33.7,30.12,North,0,0.0,0.0,19,0.00,CLR,OVC,0.00,WeatherDisplay:10.37,2013-12-10 04:36:00,
2013-12-09 22:41:00,-1.3,-33.7,30.12,North,0,0.0,0.0,19,0.00,CLR,OVC,0.00,WeatherDisplay:10.37,2013-12-10 04:41:00,
2013-12-09 22:46:00,-1.3,-33.7,30.12,North,0,0.0,0.0,19,0.00,CLR,OVC,0.00,WeatherDisplay:10.37,2013-12-10 04:46:00,
2013-12-09 22:51:00,-1.1,-33.5,30.12,North,0,0.0,0.0,19,0.00,CLR,OVC,0.00,WeatherDisplay:10.37,2013-12-10 04:51:00,
2013-12-09 22:56:00,-0.9,-33.4,30.12,North,0,0.0,0.0,19,0.00,CLR,OVC,0.00,WeatherDisplay:10.37,2013-12-10 04:56:00,
2013-12-09 23:01:00,-0.9,-33.4,30.12,North,0,0.0,0.0,19,0.00,CLR,OVC,0.00,WeatherDisplay:10.37,2013-12-10 05:01:00,
2013-12-09 23:02:00,-0.9,-33.4,30.12,North,0,0.0,0.0,19,0.00,CLR,OVC,0.00,WeatherDisplay:10.37,2013-12-10 05:02:00,
2013-12-09 23:03:00,-0.9,-33.4,30.12,North,0,0.0,0.0,19,0.00,CLR,OVC,0.00,WeatherDisplay:10.37,2013-12-10 05:03:00,
2013-12-09 23:08:00,-0.9,-33.4,30.12,North,0,0.0,0.0,19,0.00,CLR,OVC,0.00,WeatherDisplay:10.37,2013-12-10 05:08:00,
2013-12-09 23:13:00,-0.9,-33.4,30.12,North,0,0.0,0.0,19,0.00,CLR,OVC,0.00,WeatherDisplay:10.37,2013-12-10 05:13:00,
2013-12-09 23:18:00,-0.9,-33.4,30.12,North,0,0.0,0.0,19,0.00,CLR,OVC,0.00,WeatherDisplay:10.37,2013-12-10 05:18:00,
2013-12-09 23:23:00,-0.9,-33.4,30.12,North,0,0.0,0.0,19,0.00,CLR,OVC,0.00,WeatherDisplay:10.37,2013-12-10 05:23:00,
2013-12-09 23:28:00,-0.9,-33.4,30.12,North,0,0.0,0.0,19,0.00,CLR,OVC,0.00,WeatherDisplay:10.37,2013-12-10 05:28:00,
2013-12-09 23:33:00,-0.9,-33.4,30.12,North,0,0.0,0.0,19,0.00,CLR,OVC,0.00,WeatherDisplay:10.37,2013-12-10 05:33:00,
2013-12-09 23:38:00,-0.9,-33.4,30.12,North,0,0.0,0.0,19,0.00,CLR,OVC,0.00,WeatherDisplay:10.37,2013-12-10 05:38:00,
2013-12-09 23:43:00,-1.1,-33.5,30.12,North,0,0.0,0.0,19,0.00,CLR,OVC,0.00,WeatherDisplay:10.37,2013-12-10 05:43:00,
2013-12-09 23:48:00,-0.9,-33.4,30.12,North,0,0.0,0.0,19,0.00,CLR,OVC,0.00,WeatherDisplay:10.37,2013-12-10 05:48:00,
2013-12-09 23:53:00,-1.1,-33.5,30.12,North,0,0.0,0.0,19,0.00,CLR,OVC,0.00,WeatherDisplay:10.37,2013-12-10 05:53:00,
2013-12-09 23:58:00,-1.1,-33.5,30.12,North,0,0.0,0.0,19,0.00,CLR,OVC,0.00,WeatherDisplay:10.37,2013-12-10 05:58:00,